Regional Weather Roundup
Issued by NWS Upton, NY

Home | Current Version | Previous Version | Text Only | Print | Product List | Glossary On
Versions: 1 2 3 4 5 6 7 8 9 10 11 12 13 14 15 16 17 18 19 20 21 22 23 24 25 26 27 28 29 30 31 32 33 34 35 36 37 38 39 40 41 42 43 44 45 46 47 48 49 50
000
ASUS41 KOKX 240205
RWROKX

REGIONAL WEATHER ROUNDUP
NATIONAL WEATHER SERVICE NEW YORK NY
1000 PM EDT TUE SEP 23 2014

NOTE: "FAIR" INDICATES FEW OR NO CLOUDS BELOW 12,000 FEET WITH NO
SIGNIFICANT WEATHER AND/OR OBSTRUCTIONS TO VISIBILITY.

NYZ071-072-176-178-NJZ106-104-240300-
NEW YORK CITY METRO AREA


CITY           SKY/WX    TMP DP  RH WIND       PRES   REMARKS
CENTRAL PARK   CLEAR     63  51  65 CALM      30.41R
LAGUARDIA APRT PTCLDY    64  51  62 S8        30.38R
KENNEDY INTL   PTCLDY    62  54  74 SW7       30.40R
NEWARK/LIBERTY PTCLDY    62  53  72 S3        30.39R
BRNX BOT. GARD NOT AVBL
TETERBORO      CLEAR     64  53  67 S6        30.38R
$$

NYZ177-179-078>081-240300-
LONG ISLAND NEW YORK

CITY           SKY/WX    TMP DP  RH WIND       PRES   REMARKS
FARMINGDALE    CLEAR     62  52  69 CALM      30.40R
ISLIP          CLEAR     56  49  77 CALM      30.39R
SHIRLEY        PTCLDY    53  50  89 CALM      30.41R
WESTHAMPTON    PTCLDY    49  43  80 CALM      30.42R
MONTAUK POINT    N/A     56  51  84 CALM      30.42R
$$

NYZ052-065-067-240300-
HUDSON VALLEY

CITY           SKY/WX    TMP DP  RH WIND       PRES   REMARKS
WHITE PLAINS   CLEAR     56  49  77 CALM      30.40R
NEWBURGH       NOT AVBL
MONTGOMERY     CLEAR     55  49  80 NE5       30.39R
POUGHKEEPSIE   CLEAR     53  49  86 CALM      30.39R
ALBANY         PTCLDY    56  49  77 CALM      30.40R
$$

NJZ001-105-106-008-010-013-015-019>022-104-240300-
NEW JERSEY

CITY           SKY/WX    TMP DP  RH WIND       PRES   REMARKS
NEWARK/LIBERTY PTCLDY    62  53  72 S3        30.39R
TETERBORO      CLEAR     64  53  67 S6        30.38R
CALDWELL       CLEAR     57  48  72 CALM      30.39R
MORRISTOWN     PTCLDY    52  48  87 CALM      30.40R
SOMERVILLE     CLEAR     52  48  86 CALM      30.37R
LINDEN         FAIR      65  54  67 CALM      30.40R
SUSSEX         CLEAR     54  50  86 CALM      30.40R
ANDOVER          N/A     51  50  96 CALM      30.40R
TRENTON        CLEAR     58  49  72 S3        30.38R
MILLVILLE      PTCLDY    50  48  93 CALM      30.38R
ATLANTIC CITY  MOCLDY    50  49  96 CALM      30.38S
WRIGHTSTOWN    CLEAR     55  49  80 VRB5      30.37R
TOMS RIVER     PTCLDY    48  45  87 CALM      30.40R
BELMAR         PTCLDY    57  46  67 CALM      30.39S
$$

PAZ047>061-062-071-240300-
EASTERN PENNSYLVANIA

CITY           SKY/WX    TMP DP  RH WIND       PRES   REMARKS
PHILADELPHIA   PTCLDY    61  51  70 CALM      30.38S
ALLENTOWN      CLEAR     55  48  77 CALM      30.38R
SCRANTON       CLEAR     57  48  72 E7        30.40R
$$

CTZ002-004>006-009-010-012-RIZ004-006-007-MAZ004-011-015-240300-
SOUTHERN NEW ENGLAND
 IN CT

CITY           SKY/WX    TMP DP  RH WIND       PRES   REMARKS
BRADLEY INTL   PTCLDY    56  50  80 W6        30.40R
HARTFORD       CLEAR     56  52  86 SE7       30.40R
DANBURY        CLEAR     51  48  89 CALM      30.42R
WTRBRY/OXFORD  CLEAR     52  46  82 CALM      30.42R
BRIDGEPORT     CLEAR     60  52  74 N3        30.40R
MERIDEN        CLEAR     54  50  86 CALM      30.41R
NEW HAVEN      CLEAR     56  51  84 CALM      30.40R
CHESTER        FAIR      54  52  94 CALM      30.41R
GROTON         CLEAR     52  51  97 N3        30.40R
WILLIMANTIC    PTCLDY    54  50  86 N3        30.42R

 IN RI

CITY           SKY/WX    TMP DP  RH WIND       PRES   REMARKS
PROVIDENCE     CLEAR     58  48  69 W6        30.40R
BLOCK ISLAND   PTCLDY    57  48  72 SW3       30.40R
WESTERLY       CLEAR     52  49  89 CALM      30.41R

 IN MA

CITY           SKY/WX    TMP DP  RH WIND       PRES   REMARKS
BOSTON         PTCLDY    63  47  55 NW7       30.39R
WORCESTER      CLEAR     53  48  83 W6        30.41R
WESTFIELD      CLOUDY    54  51  90 CALM      30.40R
PROVINCETOWN   CLEAR     57  48  72 W8        30.39R
NANTUCKET      CLEAR     57  46  66 CALM      30.40R
$$

ANZ330-335-338-340-345-350-353-355-240300-
COASTAL MARINE OBSERVATIONS


STATION/POSITION TIME  SKY/WX   TEMP    WIND        PRES    VSBY  WAVE
                                AIR SEA DIR/SP/G                  HT/PER
                 (UTC)          (F)     (DEG/KT/KT) (MB)    (MI)  (FT/S)
NY HARB ENTRANCE 0200            65 70  200/  8/ 10 1029.5          2/ 7
4S FIRE IS       0200               69                N/A           2/ 8
20S FIRE ISLAND  0200            64 68  150/  2/  4 1029.5          2/ 8
23SW MTP         0200                                 N/A           2/ 8
HUDSON CANYON    0200            63 70   40/  6/  8 1028.8          2/ 7
EXECUTION ROCKS  0200            65 70  170/  8/ 10   N/A
WESTERN LI SOUND 0200            64     180/  4/  6   N/A           0
CENTRAL LI SOUND 0100            67 69  290/  2/  4   N/A           0
EASTERN LI SOUND 0100            64 68  310/  4/  4   N/A
ROBBINS REEF     0200            63     210/  6/  7 1027.9
$$


>>>>>>>>>>>>>>>>>>>>>>>>>>>> KEY <<<<<<<<<<<<<<<<<<<<<<<<<<<
>                                                          <
>     SKY/WX - SKY CONDITION/PRESENT WEATHER               <
>     TMP    - TEMPERATURE IN FAHRENHEIT                   <
>     DP     - DEWPOINT IN FAHRENHEIT                      <
>     RH     - RELATIVE HUMIDITY IN PERCENT                <
>     WIND   - DIRECTION AND SPEED IN MPH                  <
>     PRES   - MEAN SEA LEVEL PRESSURE IN INCHES OF HG     <
>     WCI    - WIND CHILL INDEX                            <
>     VSB    - VISIBILITY IN MILES                         <
>     HX     - HEAT INDEX                                  <
>     TC     - TEMPERATURE IN CELSIUS                      <
>     VRB    - VARIABLE WIND DIRECTION                     <
>                                                          <
>>>>>>>>>>>>>>>>>>>>>>>>>>>> KEY <<<<<<<<<<<<<<<<<<<<<<<<<<<




USA.gov is the U.S. government's official web portal to all federal, state and local government web resources and services.